Probability
45 42 39 35 29 26 19 23 23 16 16 23 19 19 19 19 13 13 26 13 3 3 0 3 3 6 6 6 6 6 6 6 6 13 13 16 26 23
35 35 32 29 29 23 19 26 23 19 16 16 16 13 19 6 13 16 23 13 6 3 3 3 0 3 3 3 6 6 0 0 3 6 6 10 13 13
29 29 26 29 29 23 19 19 19 19 13 16 19 19 16 13 6 13 13 13 6 6 3 3 3 3 0 0 0 0 0 0 0 0 3 6 10 10
26 26 26 23 26 23 23 16 16 16 16 16 19 26 23 19 13 16 13 13 13 6 6 3 3 0 0 0 0 0 0 0 0 0 0 0 0 0
29 29 26 19 19 19 19 19 16 16 16 16 19 23 23 19 16 13 13 13 10 6 6 6 3 0 0 0 0 0 0 0 0 0 0 0 0 0
35 26 29 23 26 19 16 16 16 16 16 19 19 19 19 19 16 13 13 13 13 3 6 3 3 3 3 0 3 0 0 0 0 0 0 0 0 0
29 32 29 23 16 16 16 19 16 16 19 19 13 16 13 13 10 10 13 10 10 6 6 3 6 6 3 3 3 0 0 0 0 0 0 0 0 0
29 29 23 19 13 10 10 13 16 16 16 19 16 19 19 16 13 10 10 6 10 13 10 6 3 6 6 6 3 0 0 0 0 0 0 0 0 0
29 29 23 16 19 16 10 6 3 3 3 16 23 19 19 16 13 10 6 6 3 10 6 6 6 6 10 6 0 0 0 0 0 0 0 0 0 0
26 26 23 26 19 23 19 10 10 10 6 3 13 16 10 13 10 6 6 6 3 6 6 6 6 6 6 3 0 0 0 0 0 0 0 0 0 0
26 23 23 29 19 13 16 16 16 19 3 3 6 6 6 3 3 6 6 3 3 3 6 6 6 6 6 6 0 0 0 0 0 0 0 0 0 0
19 23 16 19 16 6 16 16 19 16 16 6 3 3 3 3 3 10 6 3 3 6 6 6 6 6 6 6 6 0 0 0 0 0 0 0 0 0
23 16 16 6 0 0 6 19 16 13 16 13 10 6 10 10 6 10 10 3 3 3 6 6 3 3 6 6 6 3 0 0 0 0 0 0 0 0
16 13 13 3 0 0 0 10 10 6 10 13 10 10 13 10 10 10 13 13 10 6 10 6 6 3 3 6 6 6 3 0 0 0 0 0 0 0
10 10 3 3 0 0 0 0 0 3 10 10 10 13 13 10 16 16 19 13 10 6 6 10 10 6 6 3 3 6 6 6 3 0 0 0 0 0
6 6 0 0 0 0 3 0 0 6 10 6 6 6 13 16 16 13 13 13 13 13 10 10 10 10 10 3 3 6 6 6 6 6 3 0 0 0
6 6 6 6 6 6 3 6 3 3 3 10 13 16 19 16 13 13 13 13 10 10 10 6 6 10 10 10 6 3 6 6 6 6 6 3 0 0
0 6 6 6 6 6 3 3 6 6 6 10 13 10 13 10 13 13 13 13 10 10 10 6 6 3 3 6 6 10 10 6 10 10 6 3 3 0
3 6 6 6 6 6 3 3 3 3 13 10 6 10 10 10 10 10 13 10 10 10 6 13 13 6 6 6 3 3 6 6 6 3 3 3 3 3
6 6 6 6 6 6 3 3 3 6 10 6 6 10 6 10 10 10 10 10 6 3 6 6 10 6 3 3 3 3 3 3 3 3 3 3 6 3
0 0 3 3 3 0 0 6 6 6 10 10 3 6 3 6 6 6 6 0 0 0 0 0 3 0 0 3 3 0 3 3 3 3 3 3 3 6
3 3 3 3 3 3 3 3 6 6 6 6 3 6 6 6 3 3 3 0 0 0 0 0 0 0 0 0 0 0 0 0 0 0 0 3 3 3
3 6 6 10 3 3 0 6 3 3 3 6 3 3 3 3 3 0 0 0 0 0 0 0 0 0 0 0 0 0 0 0 0 0 0 0 0 0
Height
5843 5842 5842 5842 5842 5841 5841 5841 5841 5840 5840 5839 5839 5838 5838 5836 5837 5836 5835 5835 5834 5834 5834 5834 5833 5833 5832 5832 5832 5832 5832 5832 5833 5833 5833 5834 5834 5835
5837 5837 5836 5836 5836 5835 5835 5835 5835 5835 5834 5834 5833 5833 5832 5832 5832 5830 5829 5829 5829 5829 5829 5829 5828 5828 5827 5827 5827 5827 5827 5827 5827 5828 5828 5829 5829 5830
5831 5831 5830 5830 5830 5829 5829 5829 5829 5828 5828 5828 5827 5827 5826 5826 5826 5825 5824 5824 5823 5824 5824 5823 5823 5823 5822 5822 5822 5822 5823 5822 5823 5823 5823 5823 5824 5825
5824 5824 5824 5824 5823 5823 5822 5822 5822 5821 5821 5821 5821 5821 5821 5820 5820 5819 5819 5818 5818 5818 5818 5817 5818 5817 5817 5817 5817 5817 5817 5817 5818 5818 5818 5818 5819 5819
5818 5817 5817 5817 5816 5816 5815 5815 5815 5815 5814 5814 5814 5814 5814 5814 5813 5813 5813 5812 5812 5812 5811 5811 5811 5811 5811 5811 5811 5812 5812 5812 5813 5813 5813 5813 5813 5813
5811 5810 5810 5810 5809 5809 5808 5808 5808 5808 5808 5808 5808 5807 5807 5807 5807 5806 5806 5805 5805 5805 5805 5804 5805 5805 5805 5805 5805 5806 5806 5807 5807 5807 5807 5808 5808 5808
5804 5803 5803 5803 5802 5802 5802 5801 5801 5801 5800 5800 5800 5800 5800 5800 5799 5799 5798 5798 5798 5798 5798 5798 5798 5798 5799 5799 5799 5800 5800 5800 5801 5801 5802 5802 5802 5802
5797 5797 5796 5796 5795 5795 5794 5794 5794 5793 5793 5793 5792 5792 5792 5792 5792 5791 5790 5791 5791 5791 5791 5791 5791 5792 5792 5792 5792 5793 5793 5794 5794 5795 5795 5795 5796 5796
5791 5790 5789 5788 5788 5787 5787 5787 5786 5786 5785 5785 5785 5784 5784 5784 5784 5783 5783 5783 5783 5783 5783 5784 5784 5785 5785 5785 5785 5786 5786 5787 5788 5788 5788 5789 5789 5789
5784 5783 5782 5782 5781 5781 5780 5780 5779 5779 5778 5778 5778 5777 5777 5777 5776 5776 5776 5775 5776 5775 5775 5776 5776 5777 5777 5778 5778 5779 5779 5780 5781 5781 5781 5782 5782 5783
5777 5776 5775 5775 5775 5774 5773 5773 5772 5772 5771 5770 5770 5770 5769 5769 5769 5769 5769 5768 5768 5768 5768 5768 5769 5769 5769 5770 5771 5771 5772 5773 5773 5774 5775 5775 5775 5776
5770 5770 5769 5768 5768 5767 5766 5766 5765 5765 5764 5764 5763 5763 5762 5762 5762 5761 5761 5760 5760 5760 5760 5761 5761 5761 5762 5763 5763 5764 5765 5765 5766 5767 5767 5768 5768 5769
5764 5763 5762 5761 5760 5760 5759 5759 5758 5757 5757 5757 5756 5756 5755 5755 5754 5754 5753 5752 5752 5752 5753 5753 5753 5754 5754 5756 5756 5757 5757 5758 5758 5759 5760 5760 5761 5761
5757 5757 5756 5755 5754 5753 5752 5751 5751 5750 5750 5749 5749 5749 5748 5748 5747 5746 5744 5744 5743 5744 5744 5745 5746 5746 5747 5748 5749 5749 5750 5750 5751 5752 5752 5753 5753 5754
5751 5750 5749 5748 5747 5746 5745 5744 5743 5743 5743 5742 5742 5742 5741 5741 5740 5739 5737 5737 5736 5737 5737 5737 5738 5739 5739 5740 5741 5742 5742 5743 5744 5744 5745 5746 5746 5747
5744 5743 5741 5741 5740 5739 5738 5737 5737 5736 5736 5735 5735 5735 5734 5734 5733 5732 5731 5731 5731 5731 5731 5731 5731 5732 5733 5733 5734 5734 5735 5736 5737 5737 5738 5738 5738 5739
5737 5736 5735 5733 5733 5732 5731 5731 5730 5730 5729 5729 5728 5728 5728 5727 5727 5726 5725 5725 5725 5725 5725 5725 5725 5725 5726 5726 5727 5728 5728 5729 5729 5730 5730 5731 5731 5732
5730 5729 5727 5726 5725 5725 5724 5724 5723 5723 5722 5722 5722 5721 5721 5721 5720 5720 5719 5719 5718 5718 5719 5719 5720 5720 5721 5721 5721 5721 5722 5722 5723 5723 5722 5723 5724 5724
5723 5722 5721 5719 5718 5717 5717 5717 5716 5716 5716 5715 5715 5715 5714 5714 5714 5714 5713 5713 5712 5712 5713 5713 5714 5714 5715 5715 5716 5715 5715 5716 5716 5716 5715 5715 5716 5716
5716 5715 5714 5712 5711 5710 5710 5710 5710 5709 5709 5708 5708 5708 5708 5707 5707 5707 5707 5707 5707 5707 5707 5707 5708 5708 5708 5709 5709 5709 5708 5708 5709 5709 5708 5708 5708 5708
5709 5707 5706 5705 5704 5704 5703 5703 5703 5703 5702 5702 5702 5701 5701 5701 5701 5701 5701 5701 5700 5700 5701 5701 5701 5702 5701 5701 5702 5701 5701 5701 5701 5701 5701 5701 5700 5700
5703 5701 5700 5699 5698 5697 5697 5697 5697 5696 5696 5696 5696 5695 5695 5695 5695 5695 5695 5695 5695 5695 5695 5695 5695 5695 5695 5695 5695 5694 5694 5694 5694 5693 5693 5693 5692 5692
5697 5696 5694 5693 5692 5691 5691 5691 5691 5691 5690 5690 5690 5690 5689 5689 5689 5689 5689 5689 5689 5689 5689 5689 5689 5689 5689 5688 5688 5688 5687 5687 5686 5686 5686 5685 5684 5683
Wind_Speed
20 20 20 20 20 20 20 20 20 19 19 19 18 18 18 17 18 18 17 17 17 17 17 17 17 18 18 18 17 17 17 17 17 18 18 19 19 18
21 21 21 21 21 21 22 22 22 21 21 20 19 20 20 19 19 19 18 18 18 18 18 18 18 18 18 17 17 17 17 17 18 18 19 19 20 19
22 22 21 22 22 22 22 22 23 22 21 21 20 20 21 21 22 22 21 20 20 20 19 19 18 19 18 17 17 17 17 17 17 17 17 18 19 19
23 23 22 23 23 23 23 23 23 23 23 22 22 22 22 22 22 23 22 22 21 21 20 20 19 19 19 19 18 18 18 17 17 17 17 17 18 19
23 23 23 24 24 24 23 23 24 24 24 23 23 23 23 23 23 23 23 22 21 21 21 21 21 20 20 20 19 19 18 18 18 18 17 17 17 18
24 24 24 24 24 23 23 24 24 24 24 24 24 24 24 24 24 23 23 23 23 22 22 21 21 21 21 20 20 19 19 19 19 19 18 18 18 18
24 24 24 25 24 24 24 24 24 24 25 25 25 25 25 25 24 24 24 24 24 23 22 22 22 21 21 21 21 21 20 20 20 20 20 20 19 19
23 23 24 25 24 24 24 24 24 25 25 25 25 25 25 25 26 25 24 24 24 24 23 23 22 21 21 22 22 22 21 21 20 21 21 21 20 20
23 24 25 24 24 24 24 24 24 24 25 25 24 24 24 24 25 24 24 24 24 23 24 24 23 22 22 22 22 22 21 21 21 22 22 21 21 21
23 23 23 23 23 23 24 24 24 24 25 24 24 25 24 24 24 24 23 24 24 24 24 23 23 23 22 22 22 22 23 22 22 22 22 22 22 22
23 23 23 23 23 24 24 24 24 24 24 24 24 24 24 24 24 24 24 23 23 23 23 23 22 22 22 22 22 22 22 22 22 21 22 22 23 23
22 23 23 23 24 24 24 24 24 24 24 24 24 24 24 24 25 25 25 25 24 23 23 24 23 23 22 22 21 21 22 22 22 22 22 23 23 23
22 22 23 24 24 24 24 24 24 24 24 24 24 25 24 24 25 25 25 25 24 23 23 24 24 24 23 22 22 22 22 22 22 22 23 23 23 23
22 22 23 24 24 24 24 24 24 25 24 25 25 24 24 24 24 24 24 25 24 23 23 24 23 23 22 22 22 22 22 22 22 22 22 23 23 23
23 23 24 24 24 24 24 24 24 24 24 24 25 24 23 23 23 23 23 23 23 23 22 23 22 22 22 22 22 22 22 22 21 22 23 23 23 23
24 24 24 24 24 24 23 23 23 23 23 24 23 23 23 23 22 21 21 20 21 21 21 21 22 21 21 21 21 21 21 22 22 21 22 23 24 24
24 24 24 24 24 24 23 23 23 23 23 23 23 22 22 22 21 20 20 20 20 20 20 20 20 20 21 21 20 20 20 21 21 22 22 22 22 23
23 23 23 24 24 23 23 22 23 23 23 23 22 22 22 22 21 21 20 20 20 19 19 19 19 19 20 20 20 21 21 21 21 21 21 21 22 22
23 23 23 23 23 21 22 22 22 23 23 22 22 22 22 22 22 21 21 20 19 19 19 20 19 19 20 21 20 21 21 21 21 21 21 22 22 23
23 23 23 23 21 21 21 22 22 22 22 21 21 21 21 21 21 20 20 19 19 18 19 20 20 20 20 21 21 21 21 22 22 22 23 24 24 24
22 22 22 22 21 20 20 20 20 20 20 20 19 19 19 19 19 19 18 18 18 18 18 18 19 20 20 21 22 21 21 22 23 23 24 24 24 25
21 20 20 20 19 19 19 18 18 19 18 18 18 18 18 18 18 18 18 18 18 18 18 18 18 19 20 20 21 21 21 21 22 23 24 24 25 25
21 20 19 18 18 18 18 17 18 18 18 17 17 17 18 17 17 17 17 18 19 19 19 19 19 19 19 20 20 20 21 21 21 22 23 24 25 25
Wind_Direction
282 282 282 282 281 282 282 283 286 284 282 282 281 276 278 287 286 285 284 281 281 281 280 281 281 281 279 276 274 274 274 273 271 268 268 268 267 268
280 281 281 281 281 280 280 281 284 286 285 282 280 278 277 281 285 285 283 285 283 282 282 282 282 281 280 276 274 273 273 274 272 270 268 269 268 266
279 279 279 281 282 280 279 280 282 283 284 282 280 280 280 281 282 282 284 287 285 283 282 280 280 280 278 275 274 275 274 273 274 272 270 268 266 267
280 279 279 280 282 281 279 280 281 281 282 281 280 280 280 281 281 283 283 281 280 280 278 277 278 277 275 273 272 273 273 271 271 272 272 272 269 267
281 281 281 281 281 281 281 281 281 282 281 280 280 280 279 280 281 282 281 282 281 278 278 277 275 272 273 270 269 271 271 269 270 271 272 273 273 271
283 281 282 282 282 282 282 281 281 281 279 278 279 279 278 278 280 279 279 279 277 276 278 277 274 271 271 267 266 267 269 269 270 270 269 269 270 272
283 282 281 281 282 282 281 280 280 280 279 279 279 279 277 277 278 278 277 276 275 276 276 275 274 272 271 267 265 266 268 267 267 266 269 269 270 272
284 282 281 280 280 281 281 281 281 281 281 280 280 279 278 278 278 279 277 275 274 274 275 275 275 273 270 267 265 265 267 266 266 266 268 269 271 272
284 284 282 280 280 280 281 282 282 281 281 281 280 279 279 279 279 279 278 277 276 274 274 275 274 273 269 266 264 264 263 265 266 266 266 269 270 271
285 285 283 281 281 281 281 281 282 282 282 281 281 280 279 280 280 280 279 279 278 276 274 273 272 272 270 267 265 266 264 264 265 264 265 266 267 269
285 284 284 284 283 283 283 282 281 282 280 280 280 279 279 280 280 280 280 279 279 277 276 274 273 271 270 268 266 266 266 267 265 265 266 266 267 267
285 284 284 283 283 283 284 281 280 280 279 280 281 280 279 280 281 280 281 279 278 276 274 273 271 269 266 266 267 265 265 267 265 265 266 267 267 267
285 287 286 286 284 284 283 281 279 279 280 280 280 279 278 279 281 282 282 280 276 276 276 273 270 269 267 266 266 265 265 266 266 266 268 267 267 267
287 288 287 287 285 284 283 282 281 281 281 281 280 278 279 280 281 283 282 279 276 276 275 273 270 269 268 268 266 265 266 267 267 265 266 266 266 266
287 287 286 285 284 282 282 282 282 282 282 283 282 279 281 281 282 284 282 280 279 278 275 271 269 267 267 269 268 267 267 266 268 265 264 265 265 266
286 286 284 284 283 282 281 281 282 283 284 284 282 280 281 282 281 282 279 278 278 276 273 270 268 267 267 269 269 270 270 268 268 268 266 267 267 267
286 286 285 284 283 282 280 280 281 283 283 283 281 281 281 281 280 280 278 276 275 272 270 268 266 267 269 268 270 272 273 272 269 271 268 265 266 268
286 286 286 284 282 279 279 280 280 279 280 281 281 280 279 279 279 279 280 277 273 270 268 267 268 267 269 270 271 274 274 272 271 272 269 267 267 267
285 286 286 284 281 278 278 279 280 280 280 280 279 277 276 277 278 278 277 277 271 269 269 268 268 270 271 272 271 271 271 271 272 275 275 273 271 270
285 285 285 285 282 279 278 279 278 278 278 280 279 276 275 277 278 277 276 274 273 270 268 268 270 272 274 275 272 270 271 272 272 273 275 276 275 274
285 285 286 286 286 283 281 280 280 280 279 279 278 277 277 278 278 276 276 275 273 274 272 269 271 273 276 277 275 273 273 274 273 273 274 276 277 276
287 288 288 288 286 284 284 282 284 284 281 279 279 279 279 279 279 277 274 274 274 274 275 276 275 275 278 278 278 275 274 273 274 274 275 278 280 280
290 288 286 285 284 282 281 282 282 282 280 279 278 280 280 279 278 275 274 274 275 274 273 275 276 278 280 280 279 277 276 277 277 277 278 280 282 282